Tracking 34305 objects as of 7-Jun-2026
HD Live streaming from Space Station
objects crossing your sky now

BLUE RING PATHFINDER

Track BLUE RING PATHFINDER now!
10-day predictions


NORAD ID: 62720
Int'l Code: 2025-011A
Perigee: 2,408.2 km
Apogee: 19,282.9 km
Inclination: 29.8 °
Period: 374.7 minutes
Semi major axis: 17216 km
RCS: Unknown
Launch date: January 16, 2025
Source: United States (US)
Launch site: AIR FORCE EASTERN TEST RANGE (AFETR)
Your satellite tracking list
Your tracking list is empty




NASA's NSSDC Master Catalog

Two Line Element Set (TLE):
1 62720U 25011A   26157.45490922  .00000033  00000-0  00000-0 0  9998
2 62720  29.7934 163.1211 4900702 278.8870  30.7034  3.84311458 19464
Source of the keplerian elements: AFSPC